1998-067XD (62297 NORAD) Tracking and Keplerian Element Data

This shows tracking and keplerian element data for the satellite.

Feedback or suggestion? Click here.




ElementValue
Catalog62297
Name1998-067XD
Epoch Orbit881
Epoch Day34.83533066
Epoch Year2025
RAAN243.6581
Inclination51.6309
Eccentricity0.0014783
Argument of Perigee198.6323
Mean Anonmoly161.4136
Mean Motion15.71307163
Decay Rate0.0026713
L11 62297U 98067XD 25034.83533066 .00267130 00000+0 19880-2 0 9990
L22 62297 51.6309 243.6581 0014783 198.6323 161.4136 15.71307163 8819



Live tracking and technical data element details for 1998-067XD (NORAD 62297). 1998-067XD can be tracked NOW for your location showing map with azimuth and elevation plus other details from your city location.







IsCatalogInMostPopularTable: catalog: 62297, numindb: 10
Update: records affected: 1



GetName: 62297 1998-067XD

Hit Count: updated at: Sun, 18 May 2025 22:40:02 GMT